Location: Bergnerzell
(49.1816°N, 10.2565°E)
Time: 06:08:29
(UTC+00:00)

IDEFIX/ARIANE 42P - Pass Details

Date: 22 August 2024
Orbit: 782 x 799 km, 98.5° (Epoch: 08 September)

Event Time Altitude Azimuth Distance (km) Brightness Sun altitude
Rises 01:46:35 0° 10° (N) 3,289 6.8 -21.3°
Reaches altitude 10° 01:48:57 10° 5° (N) 2,358 5.8 -21.1°
Maximum altitude 01:53:57 50° 292° (WNW) 1,003 2.9 -20.6°
Enters shadow 01:55:23 39° 247° (WSW) 1,174 3.0 -20.4°
